Location: Kuffner-Sternwarte
(48.2130°N, 16.2960°E)
Time: 06:03:44
(UTC+02:00)

ACS3 Solar Sail - Pass Details

Date: 26 September 2024
Orbit: 963 x 1036 km, 97.4° (Epoch: 04 October)

Event Time Altitude Azimuth Distance (km) Brightness Sun altitude
Exits shadow 20:39:56 22° 154° (SSE) 2,103 3.1 -19.8°
Maximum altitude 20:44:19 74° 74° (ENE) 1,078 1.8 -20.5°
Drops below altitude 10° 20:50:43 10° 351° (N) 2,831 4.6 -21.5°
Sets 20:53:13 0° 349° (N) 3,779 5.4 -21.9°
